Location: Erlenbrunn
(49.1717°N, 7.6142°E)
Time: 08:52:26
(UTC+00:00)

H-2A R/B - Pass Details

Date: 25 November 2020
Orbit: 734 x 836 km, 98.2° (Epoch: 25 January)

Event Time Altitude Azimuth Distance (km) Brightness Sun altitude
Exits shadow 17:21:30 21° 110° (ESE) 1,756 3.4 -16.4°
Maximum altitude 17:24:06 32° 64° (ENE) 1,351 2.7 -16.9°
Drops below altitude 10° 17:28:40 10° 3° (N) 2,353 4.4 -17.6°
Sets 17:31:09 0° 354° (N) 3,269 5.2 -18.0°
